Temperature
21 20 20 21 26 29 28 28 28 27 26 25 25 25 25 24 24 22 19 19 19 18 18 18 19 18 18 19 18 19 19 19 19 19 19 19 19 19 19 19 19 19 19 19 19 18 18 18 18
20 21 21 25 29 28 27 28 27 27 26 25 24 24 24 22 21 20 19 18 19 18 18 18 18 18 18 19 19 19 19 19 19 19 19 19 19 19 19 19 19 19 19 18 18 18 18 18 18
20 21 24 29 29 28 28 28 27 26 25 25 24 24 23 21 20 19 19 18 19 18 18 18 18 18 18 18 19 19 19 19 19 19 19 19 19 19 19 19 19 19 18 18 18 18 18 18 18
21 23 27 30 29 29 28 28 27 27 26 25 25 24 21 20 19 19 18 18 19 18 18 18 18 18 18 18 19 19 19 19 19 19 19 19 19 19 19 18 18 18 18 18 18 18 18 18 18
22 27 30 30 29 29 29 28 27 27 26 25 25 24 21 19 19 19 18 18 19 18 18 18 18 18 18 18 18 19 19 19 19 19 19 19 19 19 18 18 18 18 18 18 18 18 18 18 18
27 30 30 29 29 29 29 27 27 27 26 25 25 24 20 19 19 19 18 18 19 18 18 18 18 18 18 18 18 18 18 18 18 19 19 18 19 19 18 18 18 18 18 18 18 18 18 18 18
28 31 30 30 29 29 29 27 28 27 26 25 24 24 21 19 19 19 18 18 18 18 18 18 18 18 18 18 18 18 18 18 18 18 18 18 18 18 18 18 18 18 18 18 18 18 18 18 18
27 31 31 30 30 29 28 28 27 27 26 24 24 24 22 19 19 19 18 18 18 18 18 18 18 18 18 18 18 18 18 18 18 18 18 18 18 18 18 18 18 18 18 18 18 18 18 18 18
27 31 30 30 30 29 29 28 27 26 25 24 24 24 22 19 19 19 19 18 18 18 18 18 18 18 18 18 18 18 18 18 18 18 18 18 17 17 18 17 18 18 18 18 18 18 18 18 18
30 31 31 31 31 30 29 28 27 27 26 25 23 21 20 19 19 19 19 19 19 18 19 18 18 18 18 18 18 18 18 18 17 17 17 17 17 17 17 18 18 18 18 18 18 18 18 18 18
31 31 31 30 30 29 29 28 27 28 27 26 24 21 20 20 20 20 20 20 19 19 18 19 18 18 18 18 18 18 18 18 17 17 17 18 17 17 18 18 18 18 18 17 17 18 18 18 18
31 31 30 30 29 29 29 28 28 27 27 25 24 22 21 20 20 20 20 20 19 19 18 18 18 18 18 18 18 18 18 18 18 17 17 17 18 18 18 18 17 17 18 17 17 17 17 17 17
31 31 30 29 29 29 29 28 28 27 25 24 23 22 21 21 21 20 20 20 19 19 19 18 18 18 18 18 18 18 18 18 18 18 17 17 18 18 18 18 17 18 18 18 18 17 17 17 17
31 30 30 30 29 29 29 29 28 27 25 24 23 22 22 21 21 20 20 19 19 19 19 18 18 18 18 18 18 18 18 18 18 18 17 17 18 18 18 18 18 18 18 18 18 18 18 18 18
30 31 31 30 30 30 30 29 29 26 25 24 23 22 22 21 21 20 20 20 19 19 19 19 18 18 18 18 18 18 18 18 18 18 18 17 18 18 18 18 18 18 18 18 18 18 18 18 18
31 32 31 31 31 30 30 29 28 26 25 24 23 22 22 21 21 20 20 20 19 19 19 19 19 18 18 18 18 18 18 18 18 18 18 18 18 18 18 18 18 18 18 18 18 18 18 18 18
32 31 31 31 31 31 31 30 29 26 26 25 24 23 22 21 21 20 20 19 19 19 19 19 19 18 18 18 18 18 18 18 18 18 18 18 18 18 18 18 18 18 18 18 18 18 18 18 18
31 31 31 31 31 31 31 30 29 26 26 26 24 23 22 22 21 21 20 20 19 19 19 19 19 18 18 18 18 18 18 18 18 18 18 18 18 18 18 18 18 18 18 18 18 18 18 18 18
31 31 31 31 31 31 31 30 30 28 27 26 25 24 23 22 22 21 20 20 19 19 19 19 19 19 19 18 18 18 18 18 18 18 18 18 18 18 18 18 18 18 18 18 18 18 18 18 18
31 31 31 31 31 30 31 30 30 29 28 27 26 25 24 23 22 21 21 20 20 19 19 19 19 19 19 19 19 18 18 18 18 18 18 18 18 18 18 18 18 18 18 18 18 18 18 18 18
31 31 31 30 30 31 30 30 30 30 28 27 26 25 25 24 23 22 21 21 20 20 19 19 19 19 19 19 18 18 18 18 18 18 18 18 18 18 18 18 18 18 18 18 18 18 18 18 18
30 31 31 30 30 31 30 30 30 30 29 28 27 26 25 25 24 23 22 21 21 20 20 20 20 20 19 19 19 19 18 19 19 18 18 18 18 18 18 18 18 18 18 18 18 18 18 18 18
31 31 30 30 30 30 31 30 31 31 30 30 28 27 26 25 24 23 23 22 21 21 20 20 20 20 20 19 19 19 18 18 18 18 18 18 18 18 18 18 18 18 18 18 18 18 18 18 18
30 30 30 30 31 29 30 30 30 31 30 30 29 27 26 25 25 24 23 22 21 21 21 20 20 20 20 20 19 19 19 19 18 18 18 18 18 18 18 18 18 18 18 18 18 18 18 18 18
30 30 30 29 29 30 30 30 30 30 30 29 29 28 27 26 25 24 23 22 22 21 21 20 20 20 20 20 20 19 19 19 19 19 18 18 19 19 18 18 18 18 18 18 18 18 18 18 18
30 31 29 29 29 30 29 30 30 30 29 28 28 27 26 26 25 24 24 23 22 21 21 20 20 20 20 20 20 20 19 19 18 19 18 18 18 19 18 18 18 18 18 18 18 18 18 18 18
30 30 31 30 30 29 30 30 30 30 29 29 28 27 26 26 25 25 24 23 22 21 21 20 20 20 20 20 20 20 19 19 19 19 19 18 18 18 18 18 18 18 18 18 18 18 18 18 18
30 31 30 30 28 28 29 30 30 30 29 29 28 27 26 25 25 24 24 23 22 22 21 21 20 20 20 20 20 19 19 19 19 19 18 19 18 18 18 18 18 18 18 18 18 18 17 17 17
29 29 29 30 29 29 29 30 30 29 28 28 28 27 25 25 24 24 23 23 22 22 21 21 20 20 19 19 19 19 19 19 19 19 19 19 18 18 18 18 18 18 18 18 18 18 17 17 17
30 29 29 29 28 28 29 29 29 29 28 27 27 25 24 24 24 23 23 23 22 22 21 21 20 20 19 19 19 19 19 19 19 19 19 19 18 18 18 18 18 18 18 18 18 17 17 17 17
Wind_Speed
10 7 5 4 3 5 11 9 8 8 7 7 7 6 7 7 6 7 7 10 11 11 14 15 15 15 15 15 16 17 17 18 18 17 16 16 15 15 15 14 14 14 14 14 13 13 13 12 12
6 4 4 3 3 10 11 9 9 9 8 7 7 7 7 7 7 7 8 10 11 12 13 14 15 15 15 15 15 16 17 17 17 16 15 15 15 14 14 13 13 14 13 13 12 12 12 11 11
5 5 3 1 9 11 10 9 9 8 7 5 5 6 5 6 6 6 8 12 12 12 13 15 15 15 15 15 15 16 16 16 16 15 15 14 13 13 13 13 13 13 12 12 12 11 11 11 10
4 4 2 6 14 13 10 8 7 7 6 5 6 7 6 5 4 7 11 12 12 12 13 16 15 15 14 14 15 16 16 15 15 14 14 13 13 12 12 12 12 11 11 11 10 10 10 10 9
4 2 4 11 13 11 10 7 5 5 5 6 6 8 7 6 8 12 12 12 12 12 13 16 15 15 14 14 14 15 15 14 14 13 13 12 12 11 11 11 11 10 9 9 9 9 9 8 8
3 1 6 10 12 9 9 6 6 7 8 7 7 8 6 7 10 12 12 11 11 12 12 15 15 14 14 13 13 14 14 14 13 12 12 11 11 10 10 9 9 8 8 8 8 7 7 6 6
2 4 8 10 9 9 7 5 5 6 6 6 5 7 7 9 11 12 11 11 10 11 12 13 15 14 13 13 13 13 13 13 12 12 11 11 10 10 9 8 8 7 6 6 6 6 5 5 4
3 1 8 9 8 8 6 5 5 5 7 6 4 5 8 12 12 12 11 10 9 9 9 10 11 12 12 13 13 13 13 12 11 11 11 10 10 9 8 8 7 6 6 6 5 4 4 3 3
3 2 8 8 7 7 5 5 5 5 7 6 5 6 12 17 15 13 11 10 9 9 8 8 9 9 10 11 14 13 13 11 11 11 10 8 7 8 8 8 6 4 5 5 4 3 2 3 5
1 5 9 7 6 6 5 5 5 5 6 7 9 12 17 17 15 14 13 12 11 10 8 7 7 8 8 9 10 9 9 10 8 7 7 6 5 4 5 8 5 4 5 5 5 4 5 7 4
2 6 6 5 5 5 5 5 4 4 4 5 10 15 18 17 15 13 12 12 11 10 9 8 7 7 7 7 7 6 6 7 7 7 6 5 4 4 4 5 6 5 6 5 6 6 3 2 1
3 5 4 4 4 3 4 4 4 3 6 6 11 16 18 17 15 13 12 12 11 10 9 8 7 7 6 6 6 6 5 5 5 6 5 5 2 2 3 2 3 4 4 2 2 1 1 0 1
3 4 4 4 4 4 4 4 4 4 6 9 14 16 16 15 14 12 11 11 11 10 9 8 7 7 6 5 4 5 4 4 5 4 4 3 3 2 2 2 1 1 2 3 2 1 0 1 2
3 3 4 4 4 4 4 4 4 5 8 11 13 15 14 14 14 12 11 11 10 10 9 9 8 8 7 6 5 5 5 4 4 4 4 3 2 2 2 2 2 1 1 1 1 1 1 2 1
3 3 4 3 3 3 3 4 4 7 10 11 12 12 13 13 13 13 12 11 10 10 9 9 9 8 8 7 6 6 5 5 4 3 4 4 3 2 2 1 2 2 2 2 2 1 2 2 2
4 4 3 4 2 2 4 4 6 8 10 10 11 11 12 12 12 12 11 10 10 10 10 9 9 9 8 7 6 5 5 5 4 4 4 4 3 3 3 2 2 2 2 2 2 3 2 2 2
5 2 2 4 2 2 3 2 6 8 9 10 10 11 12 12 12 12 11 11 10 10 10 10 9 9 9 8 6 6 5 5 5 5 4 4 5 4 5 3 2 4 3 2 3 1 2 2 2
2 2 1 1 2 2 2 1 5 8 8 9 10 11 11 12 13 12 12 11 11 11 10 10 10 9 8 7 6 5 5 6 6 5 4 5 5 5 5 4 4 4 3 2 2 2 3 3 3
4 4 2 0 0 2 2 2 3 7 9 10 10 11 12 12 12 13 12 12 12 12 12 11 10 10 8 7 7 7 6 6 6 6 5 6 5 5 5 4 4 5 3 3 4 3 3 3 2
5 6 3 1 1 2 2 2 3 6 9 9 10 11 12 12 12 13 13 13 13 13 12 12 11 11 10 8 6 5 5 5 5 4 4 6 5 5 6 5 5 4 3 4 3 3 3 2 2
6 6 4 3 2 5 4 5 5 6 7 8 9 10 11 12 13 14 15 15 14 14 14 12 12 12 11 10 7 6 5 5 5 5 5 5 5 5 5 4 5 4 5 3 3 3 4 3 3
6 3 4 5 7 4 5 5 4 5 6 8 9 10 11 12 13 14 15 16 16 15 14 14 13 12 12 11 9 10 8 7 6 5 4 5 5 6 5 5 5 5 5 3 5 3 3 4 4
4 2 5 6 7 7 6 7 3 4 4 6 8 10 11 12 13 14 15 15 15 15 14 14 14 13 13 12 11 10 9 8 6 6 5 5 5 6 6 5 5 5 5 4 4 3 5 4 4
4 5 6 7 8 8 5 8 5 2 3 3 3 7 10 11 12 12 13 14 13 14 14 14 14 14 14 14 13 12 11 9 8 7 6 6 6 6 6 6 5 5 5 4 5 5 6 5 5
8 8 7 8 7 6 3 6 3 2 2 3 2 3 6 10 11 11 12 13 13 14 14 14 15 15 15 15 14 13 13 12 11 9 8 7 6 6 6 6 5 5 5 5 5 6 6 6 6
9 10 8 7 7 4 4 5 2 1 1 2 2 2 4 7 10 11 11 12 13 13 14 13 14 15 15 15 14 13 13 11 10 11 9 8 7 6 5 6 6 6 6 6 5 6 6 6 6
8 9 9 9 9 8 5 4 3 2 1 1 1 1 2 4 7 9 10 10 11 13 13 13 13 13 13 14 13 13 13 12 10 9 10 9 7 7 7 7 7 7 6 6 6 6 6 6 6
6 6 7 8 8 9 7 7 4 2 1 2 1 1 1 3 4 6 7 8 9 11 12 12 12 12 12 12 12 11 12 12 10 10 10 9 8 7 7 8 8 7 7 7 7 7 6 6 6
6 7 7 8 8 9 8 4 2 1 2 2 2 1 1 2 3 4 5 7 7 8 9 10 11 11 11 11 11 11 11 12 12 11 11 10 9 9 9 9 8 8 8 7 7 7 7 7 7
8 9 9 9 8 9 9 5 4 2 2 2 1 2 1 2 2 3 4 5 6 7 7 8 9 9 9 10 10 10 10 11 11 11 11 10 10 10 10 9 9 9 9 8 8 9 8 8 8
Wind_Direction
181 190 219 238 215 83 68 65 68 76 76 73 71 71 67 48 38 82 111 126 125 126 124 127 125 125 125 126 127 126 126 124 122 120 119 116 113 109 105 101 99 98 98 98 98 98 99 101 102
174 195 232 243 70 77 70 66 67 66 89 103 84 77 75 65 62 100 124 129 130 127 129 129 129 130 130 129 128 128 127 126 124 122 120 117 114 111 106 102 100 98 99 100 100 100 101 102 104
188 230 267 51 60 63 71 70 79 85 93 97 86 65 60 70 89 111 125 137 133 127 129 129 134 132 131 130 128 130 129 128 126 124 120 117 115 112 108 106 102 100 101 102 103 102 101 101 104
225 231 227 75 71 64 70 77 93 104 94 82 96 88 79 69 94 118 132 139 132 131 132 129 134 132 131 130 130 131 129 129 128 125 122 119 117 115 111 108 105 103 104 103 103 103 104 106 108
244 261 102 82 75 72 72 76 85 84 84 91 95 98 89 82 106 122 133 136 132 131 130 131 133 133 132 131 132 132 130 129 128 125 123 119 117 115 113 110 107 105 104 104 102 102 106 109 112
248 236 82 81 80 80 78 80 80 84 92 99 107 104 92 113 125 129 131 132 131 130 129 130 132 133 134 134 132 131 131 130 128 126 123 120 117 116 115 112 109 107 106 107 107 105 104 107 111
321 58 78 83 86 83 73 74 71 86 93 95 112 107 118 131 132 131 130 128 129 130 131 134 140 138 139 138 137 135 133 130 128 125 124 124 122 120 117 115 112 110 108 108 107 105 105 107 111
307 72 85 79 80 81 84 83 71 73 89 104 117 119 137 142 139 134 132 130 128 129 129 133 140 138 145 143 139 136 133 131 131 130 130 132 134 135 132 133 118 117 115 110 109 111 112 120 124
263 86 75 70 71 86 99 97 85 89 105 102 89 97 128 139 143 140 139 136 136 133 135 137 136 139 142 141 139 143 141 141 147 144 146 159 150 139 144 109 113 126 126 123 125 128 134 167 162
282 65 66 61 68 93 107 97 113 123 115 111 110 111 129 144 150 150 149 148 147 145 144 142 140 142 143 141 140 147 148 146 151 142 146 146 132 130 123 123 139 140 142 152 156 170 197 220 171
44 60 66 71 78 98 108 108 119 125 109 125 139 140 146 151 155 156 153 152 150 150 149 152 146 140 137 137 143 142 141 143 149 145 146 138 144 142 139 139 150 159 172 168 162 193 193 173 125
75 64 63 81 92 103 106 114 114 97 75 112 138 147 151 158 161 160 156 154 153 154 156 155 147 145 141 137 138 147 147 144 139 141 156 144 143 148 127 149 152 164 154 149 177 180 151 172 191
95 74 80 101 115 111 118 116 106 102 101 122 136 149 156 159 161 159 158 159 159 161 160 158 153 151 152 152 156 147 149 145 138 137 142 155 167 170 157 152 168 176 141 169 191 203 165 228 219
76 92 103 120 122 129 125 117 126 113 127 134 145 154 161 163 163 163 167 168 167 168 166 162 164 161 163 166 163 158 159 152 147 153 154 177 176 177 191 182 183 197 190 175 217 210 208 242 268
151 141 133 129 135 137 157 123 118 130 143 147 155 159 162 168 170 173 175 176 174 173 173 171 172 168 170 173 174 172 174 165 162 162 173 202 201 187 215 205 213 199 197 200 225 237 253 242 243
198 202 159 129 149 162 241 83 109 145 157 159 162 164 169 175 179 179 182 182 181 178 179 182 181 173 175 181 182 181 180 173 180 187 190 203 209 215 231 223 221 215 226 221 220 234 260 272 275
205 204 130 133 159 192 234 81 118 156 168 167 171 173 176 180 186 184 186 186 185 184 184 186 187 182 182 182 186 188 185 196 202 202 207 201 214 221 235 237 229 233 233 235 252 210 269 266 276
241 247 184 134 146 220 234 127 136 167 182 179 179 181 185 187 191 189 190 189 188 188 188 189 189 188 187 188 192 195 198 205 211 214 215 222 226 227 241 228 222 239 238 240 254 262 254 262 261
276 269 265 33 26 243 242 233 175 178 191 191 189 190 193 195 191 191 192 193 191 190 191 193 193 188 191 195 201 200 201 205 209 214 213 225 235 232 238 252 226 238 235 242 245 249 235 246 259
248 252 245 195 154 246 257 255 201 190 201 200 194 195 197 195 191 191 194 195 195 193 195 195 196 194 197 196 203 208 212 214 216 221 211 226 231 236 231 236 240 232 228 232 244 254 271 270 254
237 256 267 263 228 222 249 233 198 194 202 205 206 203 201 199 196 192 194 196 197 198 198 199 199 198 200 197 199 199 204 220 214 217 219 226 231 236 248 244 254 253 249 233 237 241 246 264 261
242 253 259 249 248 239 251 266 206 198 202 208 208 208 207 202 199 195 194 198 200 200 198 198 198 199 198 198 204 205 210 216 218 222 217 220 227 234 236 240 245 250 257 244 246 232 252 256 265
263 255 246 248 254 261 246 269 238 193 224 226 213 209 209 203 201 199 198 199 201 199 198 196 196 198 198 200 203 209 219 222 221 221 217 230 226 232 237 238 239 240 251 252 260 251 251 250 260
211 216 223 238 248 250 258 268 262 243 280 277 226 211 209 204 201 201 199 198 201 199 199 197 195 199 200 202 206 210 218 223 225 224 222 223 224 226 228 232 236 241 249 244 245 247 238 250 260
220 235 237 230 231 242 231 258 272 336 326 310 284 220 207 200 198 196 196 195 198 200 200 200 198 201 201 203 207 209 215 218 221 226 225 232 233 226 221 230 228 239 244 248 245 241 251 242 244
230 243 251 262 260 244 204 248 265 9 331 315 294 216 197 195 194 195 196 198 200 200 201 202 202 204 203 204 207 210 213 218 221 222 233 227 235 235 223 223 229 235 239 243 239 248 243 240 245
227 240 261 266 269 269 253 253 226 196 231 323 4 133 163 185 190 191 192 196 200 202 201 201 201 204 206 206 207 210 212 220 224 220 223 230 231 230 221 222 226 232 233 238 240 249 250 244 245
260 254 245 253 259 262 250 248 254 246 319 12 19 75 153 175 185 187 190 192 196 200 199 200 201 205 209 209 210 210 211 214 220 225 225 230 231 231 229 226 228 229 228 231 238 246 242 245 244
212 224 242 257 267 270 269 262 46 32 344 333 356 51 124 172 181 179 182 187 186 188 193 196 198 202 206 209 210 213 212 212 215 220 225 226 229 228 229 230 230 231 231 230 233 246 244 246 247
238 243 238 247 249 256 271 271 82 45 0 336 351 40 84 147 161 169 172 173 176 180 185 190 194 199 205 208 208 212 214 214 215 217 220 220 223 226 226 229 231 235 234 232 234 241 242 244 246
Height
1505 1505 1506 1508 1501 1497 1503 1503 1500 1503 1507 1511 1512 1512 1513 1516 1518 1528 1531 1530 1531 1532 1533 1535 1537 1539 1540 1542 1544 1546 1548 1549 1551 1552 1554 1555 1556 1557 1558 1559 1560 1560 1561 1561 1562 1563 1563 1564 1564
1507 1507 1508 1505 1495 1504 1509 1504 1505 1507 1511 1514 1515 1515 1517 1521 1525 1528 1530 1531 1533 1534 1535 1537 1539 1541 1543 1545 1547 1548 1550 1552 1553 1555 1556 1557 1559 1560 1561 1561 1562 1562 1563 1564 1564 1565 1565 1565 1566
1508 1508 1508 1497 1497 1505 1509 1505 1508 1511 1513 1514 1516 1518 1521 1525 1528 1529 1531 1532 1534 1536 1537 1538 1540 1543 1545 1547 1549 1551 1552 1554 1555 1557 1558 1560 1561 1562 1563 1563 1564 1565 1565 1566 1566 1567 1567 1567 1568
1510 1510 1505 1498 1504 1504 1505 1507 1510 1512 1514 1516 1517 1521 1525 1529 1530 1531 1531 1534 1536 1538 1539 1540 1542 1545 1547 1549 1551 1552 1554 1556 1557 1559 1560 1562 1563 1564 1565 1565 1566 1567 1567 1568 1568 1568 1569 1569 1569
1510 1506 1499 1501 1505 1506 1507 1509 1511 1511 1514 1517 1518 1522 1528 1531 1531 1532 1533 1536 1538 1540 1542 1543 1544 1547 1549 1551 1552 1554 1556 1558 1559 1561 1562 1563 1564 1565 1566 1567 1568 1568 1569 1569 1570 1570 1570 1571 1571
1509 1501 1500 1507 1508 1507 1509 1512 1512 1513 1516 1519 1520 1523 1530 1532 1533 1534 1536 1538 1540 1542 1544 1545 1546 1548 1551 1552 1554 1556 1558 1559 1561 1562 1564 1565 1566 1567 1568 1568 1569 1570 1570 1571 1571 1571 1572 1572 1572
1508 1499 1502 1504 1507 1508 1511 1513 1512 1514 1517 1520 1522 1524 1530 1533 1535 1536 1538 1540 1542 1544 1546 1548 1549 1550 1552 1554 1555 1557 1559 1561 1563 1564 1565 1566 1567 1569 1569 1570 1571 1571 1572 1572 1572 1573 1573 1573 1573
1509 1501 1501 1503 1507 1510 1512 1514 1515 1516 1519 1522 1523 1524 1529 1534 1536 1538 1540 1542 1544 1546 1548 1550 1552 1553 1554 1555 1556 1558 1560 1562 1564 1565 1567 1568 1569 1570 1571 1572 1572 1572 1573 1573 1573 1574 1574 1574 1575
1509 1501 1504 1504 1506 1509 1512 1514 1517 1519 1521 1523 1524 1525 1529 1533 1536 1539 1542 1544 1546 1548 1550 1551 1553 1554 1556 1558 1558 1560 1562 1564 1566 1567 1568 1569 1572 1573 1573 1573 1573 1573 1574 1574 1574 1575 1575 1575 1576
1506 1502 1505 1505 1506 1509 1512 1514 1517 1519 1520 1523 1526 1529 1531 1534 1537 1540 1542 1545 1547 1549 1551 1553 1554 1556 1557 1559 1560 1562 1565 1566 1568 1569 1570 1571 1572 1573 1574 1573 1574 1574 1574 1575 1575 1575 1576 1576 1578
1505 1504 1505 1507 1509 1511 1512 1515 1517 1517 1518 1522 1526 1529 1532 1535 1539 1541 1544 1546 1548 1550 1552 1554 1556 1557 1558 1559 1561 1564 1566 1567 1569 1569 1570 1571 1573 1574 1575 1576 1575 1575 1576 1577 1576 1577 1578 1578 1578
1507 1508 1509 1510 1511 1512 1513 1515 1517 1518 1521 1524 1526 1529 1532 1536 1539 1542 1545 1547 1550 1552 1553 1555 1556 1558 1559 1560 1562 1564 1566 1568 1569 1570 1571 1573 1574 1575 1576 1576 1576 1577 1577 1577 1578 1577 1578 1577 1577
1507 1509 1510 1511 1512 1513 1515 1516 1518 1520 1523 1525 1528 1531 1534 1537 1540 1543 1546 1548 1550 1552 1554 1556 1557 1558 1559 1560 1563 1566 1567 1569 1570 1570 1571 1573 1574 1575 1576 1576 1576 1577 1578 1577 1577 1577 1577 1577 1577
1509 1509 1510 1511 1512 1514 1514 1516 1518 1522 1525 1527 1529 1532 1535 1538 1541 1543 1546 1548 1551 1553 1554 1556 1557 1558 1560 1562 1563 1566 1568 1568 1570 1571 1572 1573 1575 1575 1576 1576 1576 1577 1577 1578 1577 1577 1577 1577 1577
1510 1508 1509 1510 1511 1512 1513 1514 1517 1522 1525 1528 1530 1532 1535 1538 1541 1543 1546 1548 1550 1552 1554 1556 1557 1559 1561 1563 1564 1566 1568 1569 1570 1571 1572 1572 1574 1574 1575 1576 1576 1576 1577 1576 1577 1577 1577 1577 1577
1506 1505 1508 1509 1510 1512 1512 1515 1517 1522 1525 1527 1530 1533 1535 1538 1541 1543 1546 1548 1550 1552 1554 1556 1558 1560 1561 1563 1564 1567 1568 1569 1570 1571 1572 1572 1573 1574 1574 1575 1576 1575 1576 1576 1576 1576 1576 1576 1576
1503 1506 1508 1508 1508 1509 1509 1512 1517 1522 1524 1526 1529 1532 1534 1537 1540 1542 1545 1547 1549 1550 1552 1555 1557 1559 1561 1563 1564 1566 1567 1568 1570 1571 1572 1572 1572 1573 1574 1574 1574 1574 1575 1575 1575 1575 1575 1574 1574
1509 1506 1507 1508 1507 1507 1508 1509 1514 1520 1522 1524 1528 1531 1533 1535 1538 1540 1543 1545 1547 1549 1551 1554 1556 1558 1560 1562 1563 1565 1566 1568 1569 1570 1571 1571 1572 1572 1573 1573 1573 1573 1574 1573 1573 1573 1572 1572 1572
1503 1505 1507 1507 1506 1506 1508 1509 1511 1516 1519 1521 1525 1528 1531 1533 1536 1539 1541 1544 1546 1548 1550 1552 1554 1556 1558 1560 1562 1564 1566 1567 1568 1569 1569 1570 1571 1571 1571 1572 1571 1571 1572 1572 1572 1572 1571 1571 1571
1505 1507 1506 1506 1506 1507 1507 1507 1507 1512 1515 1518 1521 1524 1527 1530 1533 1536 1538 1541 1543 1545 1547 1549 1551 1554 1556 1558 1560 1562 1564 1565 1567 1567 1567 1568 1569 1569 1570 1569 1570 1570 1570 1569 1569 1569 1570 1570 1570
1505 1506 1506 1508 1506 1505 1508 1508 1506 1508 1512 1516 1518 1521 1523 1526 1529 1532 1535 1537 1540 1542 1544 1547 1549 1551 1554 1556 1558 1560 1561 1563 1565 1565 1566 1566 1567 1568 1568 1568 1568 1568 1569 1569 1568 1567 1567 1568 1568
1507 1502 1505 1507 1508 1507 1507 1514 1504 1502 1507 1510 1514 1517 1519 1522 1525 1528 1530 1533 1536 1538 1541 1543 1546 1548 1551 1553 1556 1557 1559 1561 1562 1563 1564 1564 1565 1565 1566 1566 1566 1566 1567 1566 1566 1566 1566 1566 1567
1504 1503 1504 1504 1505 1507 1505 1510 1503 1499 1504 1504 1508 1512 1515 1518 1521 1523 1526 1529 1532 1535 1538 1540 1542 1545 1547 1550 1552 1554 1556 1558 1560 1561 1561 1562 1563 1563 1563 1564 1564 1563 1564 1564 1564 1564 1564 1564 1564
1503 1505 1504 1503 1502 1516 1508 1511 1509 1497 1500 1500 1503 1507 1511 1514 1517 1520 1523 1526 1529 1532 1534 1536 1538 1540 1543 1546 1548 1550 1552 1554 1556 1557 1558 1559 1560 1561 1561 1561 1561 1561 1562 1562 1561 1561 1562 1562 1561
1503 1506 1514 1516 1515 1513 1503 1508 1506 1497 1499 1501 1502 1505 1508 1511 1514 1517 1520 1523 1525 1528 1530 1533 1534 1536 1539 1541 1544 1546 1548 1550 1552 1554 1555 1556 1558 1558 1558 1559 1559 1559 1559 1559 1559 1559 1559 1559 1559
1499 1500 1515 1523 1518 1507 1505 1507 1499 1496 1499 1501 1502 1504 1506 1508 1510 1513 1516 1519 1522 1524 1527 1529 1530 1532 1534 1537 1539 1542 1544 1546 1548 1550 1552 1553 1554 1556 1556 1556 1556 1557 1557 1557 1557 1558 1557 1557 1556
1499 1498 1492 1501 1506 1510 1504 1499 1495 1495 1497 1499 1500 1502 1504 1506 1508 1511 1513 1516 1518 1520 1522 1524 1526 1528 1530 1533 1535 1538 1540 1542 1545 1547 1548 1550 1550 1552 1552 1553 1553 1554 1554 1554 1554 1555 1554 1554 1554
1496 1493 1497 1502 1518 1519 1508 1503 1498 1495 1496 1497 1499 1501 1504 1505 1507 1509 1511 1513 1514 1517 1519 1521 1523 1525 1527 1529 1531 1534 1535 1537 1540 1543 1544 1545 1547 1548 1549 1549 1550 1550 1551 1551 1551 1552 1551 1551 1551
1500 1500 1499 1498 1501 1512 1514 1503 1489 1494 1496 1498 1499 1501 1503 1504 1506 1508 1509 1511 1513 1514 1516 1518 1520 1522 1524 1526 1528 1529 1531 1533 1535 1537 1539 1541 1542 1543 1544 1545 1546 1547 1547 1547 1547 1548 1548 1548 1548
1493 1494 1497 1506 1508 1505 1506 1503 1490 1493 1496 1498 1500 1502 1503 1504 1505 1506 1508 1509 1510 1512 1514 1515 1517 1518 1520 1522 1524 1526 1527 1529 1531 1533 1534 1536 1537 1539 1540 1541 1542 1543 1543 1544 1544 1544 1545 1545 1544